GW0409 Weather Reports


Display with metric or nautical units.
time (UTC)temp
F
wind
direction
speed
MPH
gust
MPH
rain 1hr
in
rain 24hr
in
rain mn
in
humidity
%
barometer
mb
20260505173017 59 5 1.0 5.0 0.00 0.00 0.00 42 1014.8
20260505172018 59 30 2.0 6.0 0.00 0.00 0.00 42 1014.8
20260505171021 59 16 2.0 4.0 0.00 0.00 0.00 42 1015.0
20260505170021 57 26 2.0 7.0 0.00 0.00 0.00 44 1015.0
20260505165020 57 32 3.0 8.0 0.00 0.00 0.00 44 1015.2
20260505164020 56 21 3.0 8.0 0.00 0.00 0.00 44 1015.2
20260505163018 55 13 3.0 6.0 0.00 0.00 0.00 46 1015.3
20260505162019 55 26 3.0 8.0 0.00 0.00 0.00 46 1015.3
20260505161019 55 12 3.0 7.0 0.00 0.00 0.00 46 1015.3
20260505153019 52 10 2.0 6.0 0.00 0.00 0.00 50 1015.2
20260505152017 51 4 3.0 7.0 0.00 0.00 0.00 52 1015.2
20260505151020 50 31 2.0 6.0 0.00 0.00 0.00 53 1015.2
20260505125040 46 11 3.0 8.0 0.00 0.00 0.00 58 1015.1
20260505124020 46 360 2.0 5.0 0.00 0.00 0.00 59 1015.1
20260505123017 46 359 2.0 4.0 0.00 0.00 0.00 58 1015.2
20260505122020 46 354 2.0 4.0 0.00 0.00 0.00 58 1015.1
20260505121020 46 6 2.0 5.0 0.00 0.00 0.00 57 1015.1
20260505120020 47 12 3.0 6.0 0.00 0.00 0.00 56 1015.1
20260505115017 47 16 3.0 8.0 0.00 0.00 0.00 56 1015.1
20260505114018 47 23 3.0 8.0 0.00 0.00 0.00 56 1015.1
20260505113039 47 13 3.0 6.0 0.00 0.00 0.00 56 1015.1
20260505112022 47 15 3.0 7.0 0.00 0.00 0.00 56 1015.0
20260505111021 47 21 3.0 7.0 0.00 0.00 0.00 55 1015.0
20260505102019 48 20 4.0 8.0 0.00 0.00 0.00 54 1014.8
20260505101019 48 17 3.0 8.0 0.00 0.00 0.00 54 1014.7
20260505100039 49 21 4.0 9.0 0.00 0.00 0.00 54 1014.7
20260505095021 49 18 3.0 7.0 0.00 0.00 0.00 54 1014.6
20260505094019 49 23 3.0 7.0 0.00 0.00 0.00 53 1014.6
20260505093018 49 23 3.0 6.0 0.00 0.00 0.00 53 1014.6
20260505092021 50 34 3.0 8.0 0.00 0.00 0.00 52 1014.5
20260505091022 50 32 4.0 9.0 0.00 0.00 0.00 52 1014.5
20260505090104 51 20 4.0 8.0 0.00 0.00 0.00 51 1014.4
20260505085018 51 25 3.0 7.0 0.00 0.00 0.00 51 1014.4
20260505084018 51 22 4.0 7.0 0.00 0.00 0.00 50 1014.5
20260505083018 52 18 4.0 7.0 0.00 0.00 0.00 49 1014.5
20260505082021 52 359 3.0 7.0 0.00 0.00 0.00 48 1014.4
20260505081018 53 9 3.0 6.0 0.00 0.00 0.00 48 1014.4
20260505080018 53 3 3.0 7.0 0.00 0.00 0.00 48 1014.4
20260505075042 53 11 3.0 5.0 0.00 0.00 0.00 47 1014.3
20260505074020 54 10 1.0 6.0 0.00 0.00 0.00 46 1014.3
20260505073018 54 332 1.0 3.0 0.00 0.00 0.00 45 1014.3
20260505072039 55 8 2.0 5.0 0.00 0.00 0.00 44 1014.2
20260505071019 55 1 1.0 4.0 0.00 0.00 0.00 43 1014.1
20260505070021 55 4 1.0 6.0 0.00 0.00 0.00 43 1014.1
20260505065019 55 342 0.0 3.0 0.00 0.00 0.00 43 1014.1
20260505064020 56 0.0 0.0 0.00 0.00 0.00 42 1014.0
20260505063038 56 289 1.0 3.0 0.00 0.00 0.00 41 1013.9
20260505062019 57 5 1.0 4.0 0.00 0.00 0.00 41 1014.0
20260505061020 57 0 1.0 3.0 0.00 0.00 0.00 40 1014.0
20260505060020 57 4 2.0 5.0 0.00 0.00 0.00 40 1013.9
20260505055021 58 4 1.0 5.0 0.00 0.00 0.00 40 1013.9
20260505054018 58 351 3.0 4.0 0.00 0.00 0.00 39 1013.9
20260505053058 57 353 2.0 4.0 0.00 0.00 0.00 39 1013.9
20260505052041 57 341 2.0 4.0 0.00 0.00 0.00 40 1013.8
20260505051021 57 333 3.0 4.0 0.00 0.00 0.00 39 1013.8
20260505041040 60 337 1.0 3.0 0.00 0.00 0.00 39 1013.6
20260505040019 60 87 0.0 3.0 0.00 0.00 0.00 38 1013.5
20260505035019 61 188 0.0 2.0 0.00 0.00 0.00 38 1013.4
20260505034017 61 128 1.0 4.0 0.00 0.00 0.00 37 1013.3
20260505033020 62 162 0.0 4.0 0.00 0.00 0.00 37 1013.2
20260505032019 63 98 1.0 4.0 0.00 0.00 0.00 36 1013.2
20260505031019 64 217 0.0 2.0 0.00 0.00 0.00 37 1013.1
20260505030017 65 156 1.0 3.0 0.00 0.00 0.00 36 1013.1
20260505025017 67 143 1.0 3.0 0.00 0.00 0.00 34 1013.0
20260505024042 67 99 1.0 5.0 0.00 0.00 0.00 32 1013.0
20260505023042 68 142 0.0 2.0 0.00 0.00 0.00 31 1012.9
20260505022018 68 358 1.0 5.0 0.00 0.00 0.00 32 1012.9
20260505021018 69 58 2.0 6.0 0.00 0.00 0.00 32 1012.8
20260505020041 70 163 1.0 5.0 0.00 0.00 0.00 31 1012.8
20260505015018 70 75 1.0 5.0 0.00 0.00 0.00 31 1012.9
20260505014018 70 173 1.0 6.0 0.00 0.00 0.00 31 1012.9
20260505013019 70 53 2.0 8.0 0.00 0.00 0.00 31 1012.9
20260505012041 69 116 1.0 4.0 0.00 0.00 0.00 32 1013.0
20260505011039 69 53 3.0 6.0 0.00 0.00 0.00 32 1013.0
20260505010019 70 56 3.0 9.0 0.00 0.00 0.00 32 1013.0
20260505005016 70 140 1.0 5.0 0.00 0.00 0.00 31 1013.1
20260505004038 69 44 3.0 8.0 0.00 0.00 0.00 32 1013.1
20260505003042 69 66 3.0 5.0 0.00 0.00 0.00 32 1013.1
20260505002020 70 329 2.0 6.0 0.00 0.00 0.00 32 1013.3
20260505001017 70 144 2.0 6.0 0.00 0.00 0.00 32 1013.3
20260505000017 70 110 2.0 5.0 0.00 0.00 0.00 32 1013.3
20260504235018 70 35 3.0 8.0 0.00 0.00 0.00 32 1013.3
20260504234018 70 131 2.0 6.0 0.00 0.00 0.00 31 1013.4
20260504233018 70 45 4.0 10.0 0.00 0.00 0.00 31 1013.5
20260504232018 70 68 4.0 8.0 0.00 0.00 0.00 31 1013.6
20260504231018 69 64 3.0 7.0 0.00 0.00 0.00 32 1013.6
20260504230039 69 62 4.0 9.0 0.00 0.00 0.00 32 1013.6
20260504225039 68 310 2.0 6.0 0.00 0.00 0.00 32 1013.8
20260504224020 68 40 5.0 9.0 0.00 0.00 0.00 33 1013.7
20260504223039 69 52 3.0 8.0 0.00 0.00 0.00 32 1013.7
20260504222019 68 47 4.0 10.0 0.00 0.00 0.00 33 1013.9
20260504221040 68 16 2.0 7.0 0.00 0.00 0.00 33 1013.9
20260504220020 68 68 4.0 10.0 0.00 0.00 0.00 34 1013.9
20260504215016 68 99 2.0 7.0 0.00 0.00 0.00 33 1014.0
20260504214017 68 257 2.0 7.0 0.00 0.00 0.00 33 1014.1
20260504213020 68 56 4.0 8.0 0.00 0.00 0.00 34 1014.2
20260504212020 68 79 2.0 7.0 0.00 0.00 0.00 34 1014.2
20260504211017 67 27 3.0 13.0 0.00 0.00 0.00 35 1014.3
20260504210018 67 59 3.0 8.0 0.00 0.00 0.00 34 1014.4
20260504205038 67 34 3.0 6.0 0.00 0.00 0.00 35 1014.4
20260504204019 66 74 2.0 5.0 0.00 0.00 0.00 37 1014.5
20260504203021 66 17 3.0 8.0 0.00 0.00 0.00 36 1014.7
20260504202058 66 13 4.0 12.0 0.00 0.00 0.00 37 1014.6
20260504201018 66 54 3.0 7.0 0.00 0.00 0.00 37 1014.8
20260504200040 65 22 3.0 7.0 0.00 0.00 0.00 38 1014.8
20260504195019 65 4 4.0 11.0 0.00 0.00 0.00 38 1014.9
20260504194016 64 42 3.0 9.0 0.00 0.00 0.00 40 1014.9
20260504193019 64 23 3.0 7.0 0.00 0.00 0.00 39 1015.0
20260504192039 64 14 3.0 9.0 0.00 0.00 0.00 40 1015.1
20260504191017 64 22 2.0 7.0 0.00 0.00 0.00 39 1015.1
20260504190019 64 36 2.0 4.0 0.00 0.00 0.00 41 1015.2
20260504185017 62 2 3.0 8.0 0.00 0.00 0.00 42 1015.3
20260504184037 62 20 3.0 5.0 0.00 0.00 0.00 42 1015.3
20260504183020 62 304 1.0 5.0 0.00 0.00 0.00 42 1015.4
20260504182017 61 49 3.0 7.0 0.00 0.00 0.00 44 1015.5
20260504181017 61 14 3.0 8.0 0.00 0.00 0.00 45 1015.5
20260504180041 60 358 2.0 6.0 0.00 0.00 0.00 45 1015.5
20260504175019 60 12 3.0 8.0 0.00 0.00 0.00 45 1015.6
20260504174022 59 4 4.0 11.0 0.00 0.00 0.00 46 1015.7